contact:dominique.lefevre@mio.osupytheas.fr, maurice.libes@osupytheas.fr, didier.mallarino@osupytheas.fr
Project:EMSO http://www.emso-fr.org/EMSO-France
Depth: 2436.0 m
Title:EMSO Ligure Ouest : Data MII capteur CSTAR
DateTime,Latitude,Longitude,Instrument_Serial,Reference_Counts,Signal_Counts,Corrected_Signal_raw_counts,Calculated_Beam_c_inverse_meters,Internal_thermistor_counts
DateTime,Latitude,Longitude,Instrument_Serial,Reference_Counts,Signal_Counts,Corrected_Signal_raw_counts,Calculated_Beam_c_inverse_meters,Internal_thermistor_counts
2019-12-24T00:02:56,42.805,6.029,CST-1368DR,7100,9950,15277,0.088,550
2019-12-24T00:05:58,42.805,6.029,CST-1368DR,7100,9951,15278,0.088,550
2019-12-24T00:08:59,42.805,6.029,CST-1368DR,7100,9952,15280,0.087,551
2019-12-24T00:12:01,42.805,6.029,CST-1368DR,7100,9953,15281,0.087,551
2019-12-24T00:15:03,42.805,6.029,CST-1368DR,7100,9951,15279,0.087,551
2019-12-24T00:18:04,42.805,6.029,CST-1368DR,7100,9953,15281,0.087,551
2019-12-24T00:21:06,42.805,6.029,CST-1368DR,7100,9950,15277,0.088,551
2019-12-24T00:24:08,42.805,6.029,CST-1368DR,7100,9951,15278,0.088,551
2019-12-24T00:27:09,42.805,6.029,CST-1368DR,7099,9953,15284,0.086,551
2019-12-24T00:30:11,42.805,6.029,CST-1368DR,7100,9951,15278,0.088,551
2019-12-24T00:33:13,42.805,6.029,CST-1368DR,7100,9950,15277,0.088,551
2019-12-24T00:36:14,42.805,6.029,CST-1368DR,7100,9953,15281,0.087,551
2019-12-24T00:39:16,42.805,6.029,CST-1368DR,7099,9951,15280,0.087,551
2019-12-24T00:42:18,42.805,6.029,CST-1368DR,7100,9949,15275,0.088,551
2019-12-24T00:45:19,42.805,6.029,CST-1368DR,7099,9952,15281,0.087,551
2019-12-24T00:48:21,42.805,6.029,CST-1368DR,7100,9951,15279,0.087,551
2019-12-24T00:51:23,42.805,6.029,CST-1368DR,7100,9951,15279,0.087,551
2019-12-24T00:54:24,42.805,6.029,CST-1368DR,7100,9952,15280,0.087,551
2019-12-24T00:57:26,42.805,6.029,CST-1368DR,7100,9951,15279,0.087,551
2019-12-24T01:00:27,42.805,6.029,CST-1368DR,7099,9951,15280,0.087,551
2019-12-24T01:03:29,42.805,6.029,CST-1368DR,7099,9951,15280,0.087,551
2019-12-24T01:06:31,42.805,6.029,CST-1368DR,7100,9951,15278,0.088,551
2019-12-24T01:09:32,42.805,6.029,CST-1368DR,7099,9951,15280,0.087,551
2019-12-24T01:12:34,42.805,6.029,CST-1368DR,7100,9950,15276,0.088,551
2019-12-24T01:15:36,42.805,6.029,CST-1368DR,7099,9950,15279,0.087,551
2019-12-24T01:18:37,42.805,6.029,CST-1368DR,7099,9951,15281,0.087,551
2019-12-24T01:21:39,42.805,6.029,CST-1368DR,7100,9951,15278,0.088,551
2019-12-24T01:24:40,42.805,6.029,CST-1368DR,7100,9952,15279,0.087,551
2019-12-24T01:27:42,42.805,6.029,CST-1368DR,7099,9952,15281,0.087,551
2019-12-24T01:30:44,42.805,6.029,CST-1368DR,7099,9950,15278,0.088,550
2019-12-24T01:33:45,42.805,6.029,CST-1368DR,7099,9951,15280,0.087,551
2019-12-24T01:36:47,42.805,6.029,CST-1368DR,7099,9950,15279,0.087,551
2019-12-24T01:39:49,42.805,6.029,CST-1368DR,7099,9952,15281,0.087,551
2019-12-24T01:42:50,42.805,6.029,CST-1368DR,7099,9951,15280,0.087,551
2019-12-24T01:45:52,42.805,6.029,CST-1368DR,7099,9951,15281,0.087,551
2019-12-24T01:48:54,42.805,6.029,CST-1368DR,7099,9950,15279,0.087,551
2019-12-24T01:51:55,42.805,6.029,CST-1368DR,7099,9950,15278,0.088,551
2019-12-24T01:54:57,42.805,6.029,CST-1368DR,7099,9951,15281,0.087,551
2019-12-24T01:57:59,42.805,6.029,CST-1368DR,7099,9952,15282,0.086,551
2019-12-24T02:01:00,42.805,6.029,CST-1368DR,7099,9951,15280,0.087,551
2019-12-24T02:04:02,42.805,6.029,CST-1368DR,7099,9951,15280,0.087,551
2019-12-24T02:07:04,42.805,6.029,CST-1368DR,7099,9951,15280,0.087,551
2019-12-24T02:10:05,42.805,6.029,CST-1368DR,7099,9952,15282,0.086,551
2019-12-24T02:13:07,42.805,6.029,CST-1368DR,7099,9949,15278,0.088,551
2019-12-24T02:16:08,42.805,6.029,CST-1368DR,7099,9951,15280,0.087,551
2019-12-24T02:19:10,42.805,6.029,CST-1368DR,7099,9950,15279,0.087,551
2019-12-24T02:22:12,42.805,6.029,CST-1368DR,7099,9951,15280,0.087,551
2019-12-24T02:25:13,42.805,6.029,CST-1368DR,7099,9952,15281,0.087,551
2019-12-24T02:28:15,42.805,6.029,CST-1368DR,7099,9950,15279,0.087,551
2019-12-24T02:31:17,42.805,6.029,CST-1368DR,7099,9950,15279,0.087,551
2019-12-24T02:34:19,42.805,6.029,CST-1368DR,7099,9950,15278,0.088,551
2019-12-24T02:37:21,42.805,6.029,CST-1368DR,7099,9951,15281,0.087,551
2019-12-24T02:40:22,42.805,6.029,CST-1368DR,7099,9951,15280,0.087,551
2019-12-24T02:43:24,42.805,6.029,CST-1368DR,7099,9951,15280,0.087,551
2019-12-24T02:46:25,42.805,6.029,CST-1368DR,7099,9951,15280,0.087,551
2019-12-24T02:49:27,42.805,6.029,CST-1368DR,7099,9950,15279,0.087,551
2019-12-24T02:52:29,42.805,6.029,CST-1368DR,7099,9948,15275,0.088,551
2019-12-24T02:55:30,42.805,6.029,CST-1368DR,7099,9950,15279,0.087,551
2019-12-24T02:58:32,42.805,6.029,CST-1368DR,7099,9950,15279,0.087,551
2019-12-24T03:01:34,42.805,6.029,CST-1368DR,7099,9950,15278,0.088,551
2019-12-24T03:04:35,42.805,6.029,CST-1368DR,7099,9950,15279,0.087,551
2019-12-24T03:07:37,42.805,6.029,CST-1368DR,7099,9949,15277,0.088,551
2019-12-24T03:10:39,42.805,6.029,CST-1368DR,7099,9947,15275,0.088,551
2019-12-24T03:13:40,42.805,6.029,CST-1368DR,7099,9947,15273,0.089,551
2019-12-24T03:16:42,42.805,6.029,CST-1368DR,7099,9950,15278,0.088,551
2019-12-24T03:19:44,42.805,6.029,CST-1368DR,7099,9949,15277,0.088,550
2019-12-24T03:22:45,42.805,6.029,CST-1368DR,7099,9950,15279,0.087,551
2019-12-24T03:25:47,42.805,6.029,CST-1368DR,7099,9951,15280,0.087,551
2019-12-24T03:28:48,42.805,6.029,CST-1368DR,7099,9950,15278,0.088,551
2019-12-24T03:31:50,42.805,6.029,CST-1368DR,7099,9951,15280,0.087,551
2019-12-24T03:34:52,42.805,6.029,CST-1368DR,7099,9950,15278,0.088,551
2019-12-24T03:37:53,42.805,6.029,CST-1368DR,7099,9951,15280,0.087,551
2019-12-24T03:40:55,42.805,6.029,CST-1368DR,7099,9951,15280,0.087,551
2019-12-24T03:43:57,42.805,6.029,CST-1368DR,7099,9948,15276,0.088,551
2019-12-24T03:46:58,42.805,6.029,CST-1368DR,7099,9950,15279,0.087,551
2019-12-24T03:50:00,42.805,6.029,CST-1368DR,7099,9950,15279,0.087,551
2019-12-24T03:53:02,42.805,6.029,CST-1368DR,7099,9951,15280,0.087,551
2019-12-24T03:56:03,42.805,6.029,CST-1368DR,7099,9948,15275,0.088,551
2019-12-24T03:59:05,42.805,6.029,CST-1368DR,7099,9947,15275,0.088,551
2019-12-24T04:02:07,42.805,6.029,CST-1368DR,7099,9951,15280,0.087,551
2019-12-24T04:05:08,42.805,6.029,CST-1368DR,7099,9951,15280,0.087,551
2019-12-24T04:08:10,42.805,6.029,CST-1368DR,7099,9950,15278,0.088,551
2019-12-24T04:11:12,42.805,6.029,CST-1368DR,7099,9950,15279,0.087,551
2019-12-24T04:14:13,42.805,6.029,CST-1368DR,7099,9950,15278,0.088,551
2019-12-24T04:17:15,42.805,6.029,CST-1368DR,7099,9950,15278,0.088,551
2019-12-24T04:20:17,42.805,6.029,CST-1368DR,7099,9951,15280,0.087,551
2019-12-24T04:23:18,42.805,6.029,CST-1368DR,7099,9950,15279,0.087,551
2019-12-24T04:26:20,42.805,6.029,CST-1368DR,7099,9949,15277,0.088,551
2019-12-24T04:29:22,42.805,6.029,CST-1368DR,7099,9949,15278,0.088,551
2019-12-24T04:32:23,42.805,6.029,CST-1368DR,7099,9946,15273,0.089,551
2019-12-24T04:35:25,42.805,6.029,CST-1368DR,7099,9950,15278,0.088,551
2019-12-24T04:38:26,42.805,6.029,CST-1368DR,7099,9948,15275,0.088,551
2019-12-24T04:41:28,42.805,6.029,CST-1368DR,7099,9950,15278,0.088,551
2019-12-24T04:44:30,42.805,6.029,CST-1368DR,7099,9950,15278,0.088,551
2019-12-24T04:47:31,42.805,6.029,CST-1368DR,7098,9948,15278,0.088,551
2019-12-24T04:50:33,42.805,6.029,CST-1368DR,7098,9950,15280,0.087,551
2019-12-24T04:53:35,42.805,6.029,CST-1368DR,7098,9950,15280,0.087,551
2019-12-24T04:56:36,42.805,6.029,CST-1368DR,7098,9950,15281,0.087,551
2019-12-24T04:59:38,42.805,6.029,CST-1368DR,7098,9950,15281,0.087,551
2019-12-24T05:02:40,42.805,6.029,CST-1368DR,7098,9950,15280,0.087,551
2019-12-24T05:05:41,42.805,6.029,CST-1368DR,7098,9949,15280,0.087,551
2019-12-24T05:08:43,42.805,6.029,CST-1368DR,7098,9948,15278,0.088,551
2019-12-24T05:11:45,42.805,6.029,CST-1368DR,7098,9950,15280,0.087,551
2019-12-24T05:14:46,42.805,6.029,CST-1368DR,7098,9946,15275,0.088,551
2019-12-24T05:17:48,42.805,6.029,CST-1368DR,7098,9950,15281,0.087,551
2019-12-24T05:20:49,42.805,6.029,CST-1368DR,7098,9950,15281,0.087,551
2019-12-24T05:23:51,42.805,6.029,CST-1368DR,7098,9950,15280,0.087,551
2019-12-24T05:26:53,42.805,6.029,CST-1368DR,7098,9950,15281,0.087,551
2019-12-24T05:29:54,42.805,6.029,CST-1368DR,7098,9949,15279,0.087,551
2019-12-24T05:32:56,42.805,6.029,CST-1368DR,7098,9950,15280,0.087,551
2019-12-24T05:35:58,42.805,6.029,CST-1368DR,7098,9949,15279,0.087,551
2019-12-24T05:38:59,42.805,6.029,CST-1368DR,7098,9950,15280,0.087,551
2019-12-24T05:42:01,42.805,6.029,CST-1368DR,7098,9949,15280,0.087,551
2019-12-24T05:45:03,42.805,6.029,CST-1368DR,7098,9948,15278,0.088,551
2019-12-24T05:48:04,42.805,6.029,CST-1368DR,7098,9950,15280,0.087,551
2019-12-24T05:51:06,42.805,6.029,CST-1368DR,7098,9950,15280,0.087,551
2019-12-24T05:54:08,42.805,6.029,CST-1368DR,7098,9949,15279,0.087,551
2019-12-24T05:57:09,42.805,6.029,CST-1368DR,7098,9948,15278,0.088,551
2019-12-24T06:00:11,42.805,6.029,CST-1368DR,7098,9950,15280,0.087,551
2019-12-24T06:03:12,42.805,6.029,CST-1368DR,7098,9949,15279,0.087,551
2019-12-24T06:06:14,42.805,6.029,CST-1368DR,7098,9950,15280,0.087,551
2019-12-24T06:09:16,42.805,6.029,CST-1368DR,7098,9948,15278,0.088,551
2019-12-24T06:12:18,42.805,6.029,CST-1368DR,7098,9950,15280,0.087,551
2019-12-24T06:15:19,42.805,6.029,CST-1368DR,7098,9949,15279,0.087,551
2019-12-24T06:18:21,42.805,6.029,CST-1368DR,7098,9949,15280,0.087,550
2019-12-24T06:21:22,42.805,6.029,CST-1368DR,7098,9949,15280,0.087,551
2019-12-24T06:24:24,42.805,6.029,CST-1368DR,7098,9949,15279,0.087,551
2019-12-24T06:27:26,42.805,6.029,CST-1368DR,7098,9949,15280,0.087,551
2019-12-24T06:30:27,42.805,6.029,CST-1368DR,7098,9950,15280,0.087,551
2019-12-24T06:33:29,42.805,6.029,CST-1368DR,7098,9949,15279,0.087,551
2019-12-24T06:36:31,42.805,6.029,CST-1368DR,7098,9949,15279,0.087,551
2019-12-24T06:39:32,42.805,6.029,CST-1368DR,7098,9949,15280,0.087,551
2019-12-24T06:42:34,42.805,6.029,CST-1368DR,7098,9949,15279,0.087,551
2019-12-24T06:45:36,42.805,6.029,CST-1368DR,7098,9947,15277,0.088,551
2019-12-24T06:48:37,42.805,6.029,CST-1368DR,7098,9948,15277,0.088,551
2019-12-24T06:51:39,42.805,6.029,CST-1368DR,7098,9948,15277,0.088,551
2019-12-24T06:54:40,42.805,6.029,CST-1368DR,7098,9947,15275,0.088,551
2019-12-24T06:57:42,42.805,6.029,CST-1368DR,7098,9949,15279,0.087,551
2019-12-24T07:00:44,42.805,6.029,CST-1368DR,7098,9949,15280,0.087,551
2019-12-24T07:03:46,42.805,6.029,CST-1368DR,7098,9948,15278,0.088,551
2019-12-24T07:06:47,42.805,6.029,CST-1368DR,7098,9949,15279,0.087,551
2019-12-24T07:09:49,42.805,6.029,CST-1368DR,7098,9949,15279,0.087,551
2019-12-24T07:12:51,42.805,6.029,CST-1368DR,7098,9950,15280,0.087,551
2019-12-24T07:15:52,42.805,6.029,CST-1368DR,7098,9948,15277,0.088,551
2019-12-24T07:18:54,42.805,6.029,CST-1368DR,7098,9950,15280,0.087,551
2019-12-24T07:21:55,42.805,6.029,CST-1368DR,7098,9948,15278,0.088,551
2019-12-24T07:24:57,42.805,6.029,CST-1368DR,7098,9949,15280,0.087,550
2019-12-24T07:27:59,42.805,6.029,CST-1368DR,7098,9948,15278,0.088,551
2019-12-24T07:31:00,42.805,6.029,CST-1368DR,7098,9948,15278,0.088,551
2019-12-24T07:34:02,42.805,6.029,CST-1368DR,7098,9949,15279,0.087,551
2019-12-24T07:37:04,42.805,6.029,CST-1368DR,7098,9949,15279,0.087,551
2019-12-24T07:40:05,42.805,6.029,CST-1368DR,7098,9948,15277,0.088,551
2019-12-24T07:43:07,42.805,6.029,CST-1368DR,7098,9948,15278,0.088,550
2019-12-24T07:46:09,42.805,6.029,CST-1368DR,7098,9948,15277,0.088,551
2019-12-24T07:49:10,42.805,6.029,CST-1368DR,7098,9948,15278,0.088,551
2019-12-24T07:52:12,42.805,6.029,CST-1368DR,7098,9948,15277,0.088,551
2019-12-24T07:55:13,42.805,6.029,CST-1368DR,7098,9948,15277,0.088,551
2019-12-24T07:58:15,42.805,6.029,CST-1368DR,7098,9949,15279,0.087,551
2019-12-24T08:01:17,42.805,6.029,CST-1368DR,7098,9949,15279,0.087,551
2019-12-24T08:04:19,42.805,6.029,CST-1368DR,7097,9949,15281,0.087,551
2019-12-24T08:07:20,42.805,6.029,CST-1368DR,7097,9948,15280,0.087,551
2019-12-24T08:10:22,42.805,6.029,CST-1368DR,7097,9948,15280,0.087,551
2019-12-24T08:13:24,42.805,6.029,CST-1368DR,7097,9948,15279,0.087,551
2019-12-24T08:16:25,42.805,6.029,CST-1368DR,7097,9949,15281,0.087,551
2019-12-24T08:19:27,42.805,6.029,CST-1368DR,7097,9948,15280,0.087,551
2019-12-24T08:22:29,42.805,6.029,CST-1368DR,7097,9947,15279,0.087,551
2019-12-24T08:25:30,42.805,6.029,CST-1368DR,7097,9947,15278,0.088,551
2019-12-24T08:28:32,42.805,6.029,CST-1368DR,7097,9948,15280,0.087,551
2019-12-24T08:31:34,42.805,6.029,CST-1368DR,7097,9948,15279,0.087,551
2019-12-24T08:34:35,42.805,6.029,CST-1368DR,7097,9949,15281,0.087,551
2019-12-24T08:37:37,42.805,6.029,CST-1368DR,7097,9948,15280,0.087,551
2019-12-24T08:40:38,42.805,6.029,CST-1368DR,7097,9948,15280,0.087,551
2019-12-24T08:43:40,42.805,6.029,CST-1368DR,7097,9948,15280,0.087,551
2019-12-24T08:46:42,42.805,6.029,CST-1368DR,7097,9948,15280,0.087,551
2019-12-24T08:49:43,42.805,6.029,CST-1368DR,7097,9948,15280,0.087,551
2019-12-24T08:52:45,42.805,6.029,CST-1368DR,7097,9948,15280,0.087,551
2019-12-24T08:55:47,42.805,6.029,CST-1368DR,7097,9948,15279,0.087,550
2019-12-24T08:58:48,42.805,6.029,CST-1368DR,7097,9948,15279,0.087,551
2019-12-24T09:01:50,42.805,6.029,CST-1368DR,7097,9949,15281,0.087,551
2019-12-24T09:04:52,42.805,6.029,CST-1368DR,7097,9949,15281,0.087,551
2019-12-24T09:07:53,42.805,6.029,CST-1368DR,7097,9948,15280,0.087,551
2019-12-24T09:10:55,42.805,6.029,CST-1368DR,7097,9948,15280,0.087,551
2019-12-24T09:13:57,42.805,6.029,CST-1368DR,7097,9948,15279,0.087,551
2019-12-24T09:16:58,42.805,6.029,CST-1368DR,7097,9947,15277,0.088,551
2019-12-24T09:20:00,42.805,6.029,CST-1368DR,7097,9948,15279,0.087,551
2019-12-24T09:23:02,42.805,6.029,CST-1368DR,7097,9947,15279,0.087,551
2019-12-24T09:26:03,42.805,6.029,CST-1368DR,7097,9947,15279,0.087,551
2019-12-24T09:29:05,42.805,6.029,CST-1368DR,7097,9948,15280,0.087,551
2019-12-24T09:32:07,42.805,6.029,CST-1368DR,7097,9947,15278,0.088,551
2019-12-24T09:35:08,42.805,6.029,CST-1368DR,7097,9948,15279,0.087,551
2019-12-24T09:38:10,42.805,6.029,CST-1368DR,7097,9948,15280,0.087,550
2019-12-24T09:41:11,42.805,6.029,CST-1368DR,7097,9948,15279,0.087,551
2019-12-24T09:44:13,42.805,6.029,CST-1368DR,7097,9947,15277,0.088,551
2019-12-24T09:47:15,42.805,6.029,CST-1368DR,7097,9947,15279,0.087,551
2019-12-24T09:50:16,42.805,6.029,CST-1368DR,7097,9947,15278,0.088,551
2019-12-24T09:53:18,42.805,6.029,CST-1368DR,7097,9947,15278,0.088,551
2019-12-24T09:56:20,42.805,6.029,CST-1368DR,7097,9948,15280,0.087,550
2019-12-24T09:59:21,42.805,6.029,CST-1368DR,7097,9948,15279,0.087,551
2019-12-24T10:02:23,42.805,6.029,CST-1368DR,7097,9947,15278,0.088,551
2019-12-24T10:05:25,42.805,6.029,CST-1368DR,7097,9947,15278,0.088,551
2019-12-24T10:08:26,42.805,6.029,CST-1368DR,7097,9948,15280,0.087,551
2019-12-24T10:11:28,42.805,6.029,CST-1368DR,7097,9947,15279,0.087,551
2019-12-24T10:14:30,42.805,6.029,CST-1368DR,7097,9947,15277,0.088,551
2019-12-24T10:17:31,42.805,6.029,CST-1368DR,7097,9947,15278,0.088,551
2019-12-24T10:20:33,42.805,6.029,CST-1368DR,7097,9948,15280,0.087,551
2019-12-24T10:23:35,42.805,6.029,CST-1368DR,7097,9949,15281,0.087,551
2019-12-24T10:26:36,42.805,6.029,CST-1368DR,7097,9949,15281,0.087,551
2019-12-24T10:29:38,42.805,6.029,CST-1368DR,7097,9948,15280,0.087,551
2019-12-24T10:32:40,42.805,6.029,CST-1368DR,7097,9948,15279,0.087,551
2019-12-24T10:35:41,42.805,6.029,CST-1368DR,7097,9948,15279,0.087,551
2019-12-24T10:38:43,42.805,6.029,CST-1368DR,7097,9948,15279,0.087,551
2019-12-24T10:41:44,42.805,6.029,CST-1368DR,7097,9949,15281,0.087,551
2019-12-24T10:44:46,42.805,6.029,CST-1368DR,7097,9948,15279,0.087,551
2019-12-24T10:47:48,42.805,6.029,CST-1368DR,7097,9949,15281,0.087,551
2019-12-24T10:50:49,42.805,6.029,CST-1368DR,7097,9947,15279,0.087,551
2019-12-24T10:53:51,42.805,6.029,CST-1368DR,7097,9949,15281,0.087,550
2019-12-24T10:56:53,42.805,6.029,CST-1368DR,7097,9949,15281,0.087,551
2019-12-24T10:59:54,42.805,6.029,CST-1368DR,7097,9948,15280,0.087,551
2019-12-24T11:02:56,42.805,6.029,CST-1368DR,7097,9949,15281,0.087,551
2019-12-24T11:05:58,42.805,6.029,CST-1368DR,7097,9948,15280,0.087,551
2019-12-24T11:08:59,42.805,6.029,CST-1368DR,7097,9949,15281,0.087,551
2019-12-24T11:12:01,42.805,6.029,CST-1368DR,7097,9948,15280,0.087,551
2019-12-24T11:15:03,42.805,6.029,CST-1368DR,7097,9947,15278,0.088,551
2019-12-24T11:18:04,42.805,6.029,CST-1368DR,7097,9947,15279,0.087,551
2019-12-24T11:21:06,42.805,6.029,CST-1368DR,7096,9948,15281,0.087,551
2019-12-24T11:24:07,42.805,6.029,CST-1368DR,7097,9947,15278,0.088,551
2019-12-24T11:27:09,42.805,6.029,CST-1368DR,7096,9948,15282,0.086,551
2019-12-24T11:30:11,42.805,6.029,CST-1368DR,7096,9947,15280,0.087,551
2019-12-24T11:33:12,42.805,6.029,CST-1368DR,7096,9947,15280,0.087,551
2019-12-24T11:36:14,42.805,6.029,CST-1368DR,7096,9947,15281,0.087,551
2019-12-24T11:39:16,42.805,6.029,CST-1368DR,7096,9948,15282,0.086,551
2019-12-24T11:42:17,42.805,6.029,CST-1368DR,7096,9947,15280,0.087,551
2019-12-24T11:45:19,42.805,6.029,CST-1368DR,7096,9946,15279,0.087,551
2019-12-24T11:48:21,42.805,6.029,CST-1368DR,7096,9947,15279,0.087,551
2019-12-24T11:51:23,42.805,6.029,CST-1368DR,7097,9947,15278,0.088,551
2019-12-24T11:54:25,42.805,6.029,CST-1368DR,7096,9947,15281,0.087,551
2019-12-24T11:57:26,42.805,6.029,CST-1368DR,7096,9948,15281,0.087,551
2019-12-24T12:00:28,42.805,6.029,CST-1368DR,7096,9947,15281,0.087,551
2019-12-24T12:03:29,42.805,6.029,CST-1368DR,7096,9948,15281,0.087,551
2019-12-24T12:06:31,42.805,6.029,CST-1368DR,7096,9945,15277,0.088,551
2019-12-24T12:09:33,42.805,6.029,CST-1368DR,7096,9946,15279,0.087,551
2019-12-24T12:12:34,42.805,6.029,CST-1368DR,7096,9948,15282,0.086,551
2019-12-24T12:15:36,42.805,6.029,CST-1368DR,7096,9948,15282,0.086,551
2019-12-24T12:18:38,42.805,6.029,CST-1368DR,7096,9948,15281,0.087,551
2019-12-24T12:21:39,42.805,6.029,CST-1368DR,7096,9948,15282,0.086,551
2019-12-24T12:24:41,42.805,6.029,CST-1368DR,7096,9948,15282,0.086,551
2019-12-24T12:27:43,42.805,6.029,CST-1368DR,7096,9945,15277,0.088,551
2019-12-24T12:30:44,42.805,6.029,CST-1368DR,7096,9947,15281,0.087,551
2019-12-24T12:33:46,42.805,6.029,CST-1368DR,7096,9947,15279,0.087,551
2019-12-24T12:36:48,42.805,6.029,CST-1368DR,7096,9943,15274,0.089,551
2019-12-24T12:39:49,42.805,6.029,CST-1368DR,7096,9943,15273,0.089,551
2019-12-24T12:42:51,42.805,6.029,CST-1368DR,7096,9945,15278,0.088,551
2019-12-24T12:45:52,42.805,6.029,CST-1368DR,7096,9946,15279,0.087,551
2019-12-24T12:48:54,42.805,6.029,CST-1368DR,7096,9946,15279,0.087,551
2019-12-24T12:51:56,42.805,6.029,CST-1368DR,7096,9948,15281,0.087,551
2019-12-24T12:54:57,42.805,6.029,CST-1368DR,7096,9947,15281,0.087,551
2019-12-24T12:57:59,42.805,6.029,CST-1368DR,7096,9947,15281,0.087,551
2019-12-24T13:01:01,42.805,6.029,CST-1368DR,7096,9948,15281,0.087,551
2019-12-24T13:04:02,42.805,6.029,CST-1368DR,7096,9947,15280,0.087,551
2019-12-24T13:07:04,42.805,6.029,CST-1368DR,7096,9947,15280,0.087,551
2019-12-24T13:10:06,42.805,6.029,CST-1368DR,7096,9946,15278,0.088,551
2019-12-24T13:13:08,42.805,6.029,CST-1368DR,7096,9945,15277,0.088,551
2019-12-24T13:16:09,42.805,6.029,CST-1368DR,7096,9944,15276,0.088,551
2019-12-24T13:19:11,42.805,6.029,CST-1368DR,7096,9946,15279,0.087,551
2019-12-24T13:22:12,42.805,6.029,CST-1368DR,7096,9947,15280,0.087,551
2019-12-24T13:25:14,42.805,6.029,CST-1368DR,7096,9946,15279,0.087,551
2019-12-24T13:28:16,42.805,6.029,CST-1368DR,7096,9944,15275,0.088,551
2019-12-24T13:31:18,42.805,6.029,CST-1368DR,7096,9947,15280,0.087,551
2019-12-24T13:34:19,42.805,6.029,CST-1368DR,7096,9947,15280,0.087,551
2019-12-24T13:37:21,42.805,6.029,CST-1368DR,7096,9948,15281,0.087,551
2019-12-24T13:40:22,42.805,6.029,CST-1368DR,7096,9947,15280,0.087,551
2019-12-24T13:43:24,42.805,6.029,CST-1368DR,7096,9947,15280,0.087,550
2019-12-24T13:46:26,42.805,6.029,CST-1368DR,7096,9937,15264,0.091,551
2019-12-24T13:49:28,42.805,6.029,CST-1368DR,7096,9947,15280,0.087,551
2019-12-24T13:52:29,42.805,6.029,CST-1368DR,7096,9947,15281,0.087,551
2019-12-24T13:55:31,42.805,6.029,CST-1368DR,7096,9945,15278,0.088,551
2019-12-24T13:58:33,42.805,6.029,CST-1368DR,7096,9946,15279,0.087,551
2019-12-24T14:01:34,42.805,6.029,CST-1368DR,7096,9947,15280,0.087,551
2019-12-24T14:04:36,42.805,6.029,CST-1368DR,7096,9947,15280,0.087,551
2019-12-24T14:07:38,42.805,6.029,CST-1368DR,7096,9947,15280,0.087,550
2019-12-24T14:10:39,42.805,6.029,CST-1368DR,7096,9946,15278,0.088,551
2019-12-24T14:13:41,42.805,6.029,CST-1368DR,7096,9944,15275,0.088,551
2019-12-24T14:16:43,42.805,6.029,CST-1368DR,7096,9946,15278,0.088,551
2019-12-24T14:19:44,42.805,6.029,CST-1368DR,7096,9946,15279,0.087,550
2019-12-24T14:22:46,42.805,6.029,CST-1368DR,7096,9947,15279,0.087,551
2019-12-24T14:25:48,42.805,6.029,CST-1368DR,7096,9947,15279,0.087,551
2019-12-24T14:28:49,42.805,6.029,CST-1368DR,7096,9946,15279,0.087,550
2019-12-24T14:31:51,42.805,6.029,CST-1368DR,7096,9946,15278,0.088,550
2019-12-24T14:34:52,42.805,6.029,CST-1368DR,7096,9945,15277,0.088,551
2019-12-24T14:37:54,42.805,6.029,CST-1368DR,7096,9944,15276,0.088,551
2019-12-24T14:40:56,42.805,6.029,CST-1368DR,7096,9944,15276,0.088,551
2019-12-24T14:43:57,42.805,6.029,CST-1368DR,7096,9944,15276,0.088,551
2019-12-24T14:46:59,42.805,6.029,CST-1368DR,7096,9946,15278,0.088,550
2019-12-24T14:50:01,42.805,6.029,CST-1368DR,7096,9946,15279,0.087,551
2019-12-24T14:53:02,42.805,6.029,CST-1368DR,7096,9946,15279,0.087,551
2019-12-24T14:56:04,42.805,6.029,CST-1368DR,7096,9946,15279,0.087,551
2019-12-24T14:59:06,42.805,6.029,CST-1368DR,7096,9945,15277,0.088,551
2019-12-24T15:02:07,42.805,6.029,CST-1368DR,7096,9947,15280,0.087,551
2019-12-24T15:05:09,42.805,6.029,CST-1368DR,7096,9946,15279,0.087,551
2019-12-24T15:08:10,42.805,6.029,CST-1368DR,7096,9947,15279,0.087,551
2019-12-24T15:11:12,42.805,6.029,CST-1368DR,7096,9947,15279,0.087,551
2019-12-24T15:14:14,42.805,6.029,CST-1368DR,7096,9944,15275,0.088,551
2019-12-24T15:17:15,42.805,6.029,CST-1368DR,7095,9945,15279,0.087,551
2019-12-24T15:20:17,42.805,6.029,CST-1368DR,7096,9944,15275,0.088,551
2019-12-24T15:23:19,42.805,6.029,CST-1368DR,7096,9946,15279,0.087,551
2019-12-24T15:26:20,42.805,6.029,CST-1368DR,7095,9945,15279,0.087,551
2019-12-24T15:29:22,42.805,6.029,CST-1368DR,7096,9947,15279,0.087,551
2019-12-24T15:32:23,42.805,6.029,CST-1368DR,7096,9946,15278,0.088,550
2019-12-24T15:35:25,42.805,6.029,CST-1368DR,7096,9946,15278,0.088,551
2019-12-24T15:38:27,42.805,6.029,CST-1368DR,7095,9944,15277,0.088,551
2019-12-24T15:41:28,42.805,6.029,CST-1368DR,7095,9946,15281,0.087,551
2019-12-24T15:44:30,42.805,6.029,CST-1368DR,7096,9946,15278,0.088,551
2019-12-24T15:47:32,42.805,6.029,CST-1368DR,7095,9945,15279,0.087,551
2019-12-24T15:50:33,42.805,6.029,CST-1368DR,7095,9947,15282,0.086,550
2019-12-24T15:53:35,42.805,6.029,CST-1368DR,7095,9945,15278,0.088,550
2019-12-24T15:56:37,42.805,6.029,CST-1368DR,7095,9946,15280,0.087,551
2019-12-24T15:59:38,42.805,6.029,CST-1368DR,7095,9946,15280,0.087,551
2019-12-24T16:02:40,42.805,6.029,CST-1368DR,7095,9946,15281,0.087,551
2019-12-24T16:05:42,42.805,6.029,CST-1368DR,7095,9946,15280,0.087,551
2019-12-24T16:08:43,42.805,6.029,CST-1368DR,7095,9947,15282,0.086,550
2019-12-24T16:11:45,42.805,6.029,CST-1368DR,7095,9946,15281,0.087,551
2019-12-24T16:14:46,42.805,6.029,CST-1368DR,7095,9946,15281,0.087,550
2019-12-24T16:17:48,42.805,6.029,CST-1368DR,7095,9946,15281,0.087,551
2019-12-24T16:20:50,42.805,6.029,CST-1368DR,7095,9945,15279,0.087,551
2019-12-24T16:23:51,42.805,6.029,CST-1368DR,7095,9946,15281,0.087,551
2019-12-24T16:26:53,42.805,6.029,CST-1368DR,7095,9946,15280,0.087,551
2019-12-24T16:29:55,42.805,6.029,CST-1368DR,7095,9945,15279,0.087,551
2019-12-24T16:32:56,42.805,6.029,CST-1368DR,7095,9945,15279,0.087,551
2019-12-24T16:35:58,42.805,6.029,CST-1368DR,7095,9945,15280,0.087,550
2019-12-24T16:39:00,42.805,6.029,CST-1368DR,7095,9945,15280,0.087,551
2019-12-24T16:42:01,42.805,6.029,CST-1368DR,7095,9945,15279,0.087,551
2019-12-24T16:45:03,42.805,6.029,CST-1368DR,7095,9946,15280,0.087,551
2019-12-24T16:48:05,42.805,6.029,CST-1368DR,7095,9945,15279,0.087,551
2019-12-24T16:51:06,42.805,6.029,CST-1368DR,7095,9945,15279,0.087,551
2019-12-24T16:54:08,42.805,6.029,CST-1368DR,7095,9942,15274,0.089,551